Regional Weather Roundup
Issued by NWS Green Bay, WI

Home | Current Version | Previous Version | Graphics & Text | Print | Product List | Glossary Off
Versions: 1 2 3 4 5 6 7 8 9 10 11 12 13 14 15 16 17 18 19 20 21 22 23 24 25 26 27 28 29 30 31 32 33 34 35 36 37 38 39 40 41 42 43 44 45 46 47 48 49 50

000
ASUS43 KGRB 271410
RWRGRB

NORTH-CENTRAL AND NORTHEAST WISCONSIN REGIONAL WEATHER ROUNDUP
NATIONAL WEATHER SERVICE GREEN BAY WI
900 AM CDT MON APR 27 2015

WIZ005-009-010>012-018-019-271500-
NORTH CENTRAL WISCONSIN

CITY           SKY/WX    TMP DP  RH WIND       PRES   REMARKS
IRONWOOD       SUNNY     43  28  56 NE5       30.19S
MANITOWISH WTR SUNNY     46  29  51 N8        30.18F
ARBOR VITAE    SUNNY     49  32  51 N15       30.17S
EAGLE RIVER    SUNNY     45  27  50 N9        30.16F
LAND O LAKES   SUNNY     45  29  52 N9        30.18S
RHINELANDER    SUNNY     46  28  49 N12       30.17S
PHILLIPS       SUNNY     46  29  51 N8        30.18F
ANTIGO         SUNNY     46  31  55 N10       30.15S
TOMAHAWK       SUNNY     47  29  50 CALM      30.17F
MERRILL        SUNNY     48  30  51 N9        30.16F
$$

WIZ013-073-271500-
NORTHEAST WISCONSIN

CITY           SKY/WX    TMP DP  RH WIND       PRES   REMARKS
IRON MOUNTAIN  SUNNY     46  30  53 N13       30.14R
MARINETTE      SUNNY     46  30  53 NE12      30.13S
OCONTO         SUNNY     48  32  53 N12       30.13S
$$

WIZ017-030-035>037-045-271500-
CENTRAL WISCONSIN

CITY           SKY/WX    TMP DP  RH WIND       PRES   REMARKS
MEDFORD        SUNNY     47  31  53 N9        30.17S
WAUSAU         SUNNY     47  29  49 N9        30.15S
MOSINEE        SUNNY     46  30  53 N8        30.16S
MARSHFIELD     SUNNY     50  30  46 NE13G18   30.17S
WISC RAPIDS    SUNNY     51  29  42 N12       30.17S
STEVENS POINT  SUNNY     46  29  49 N6        30.16S
WAUPACA        SUNNY     50  31  48 N8        30.15S
SHAWANO        SUNNY     51  32  48 N7        30.14S
CLINTONVILLE   SUNNY     46  32  57 N9        30.14S
$$

WIZ038-039-048-051-271500-
FOX VALLEY

CITY           SKY/WX    TMP DP  RH WIND       PRES   REMARKS
NWS GREEN BAY  SUNNY     51  34  52 N8        30.13R
APPLETON       MOSUNNY   46  30  53 N10       30.14R
OSHKOSH        SUNNY     48  31  51 N10       30.13S
FOND DU LAC    SUNNY     49  32  52 N12       30.13R
$$

WIZ022-050-052-271500-
EAST CENTRAL WISCONSIN

CITY           SKY/WX    TMP DP  RH WIND       PRES   REMARKS
STURGEON BAY   SUNNY     43  30  61 N17G23    30.15R
MANITOWOC      SUNNY     48  34  58 N10       30.12R
SHEBOYGAN      SUNNY     49  34  56 N10       30.11R
$$

LMZ563-521-522-541>543-271500-
LAKESHORE

STATION/POSITION TIME  TEMP    WIND        PRES    VSBY  WAVE
                       AIR SEA DIR/SP/G                  HT/PER
                 (UTC) (F)     (DEG/KT/KT) (MB)    (MI)  (FT/S)
SHEBOYGAN LKSHOR 1400   45     360/ 13/ 14 1020.1R
KEWAUNEE LKSHORE 1400   47     350/  9/ 15 1018.9R
NORTHPORT PIER   1400   39     320/ 10/ 12 1020.0F
SISTER BAY LKSHO 1400   42     360/ 16/ 21   N/A
CHAMBERS ISLAND  1400   43     340/  8/ 10 1020.7S
MENOMINEE LKSHOR 1400   44     350/ 10/ 12 1020.9R
$$


USA.gov is the U.S. government's official web portal to all federal, state and local government web resources and services.